Tracking 33188 objects as of 11-Feb-2026
HD Live streaming from Space Station
objects crossing your sky now

CZ-6A DEB

Track CZ-6A DEB now!
10-day predictions


NORAD ID: 54393
Int'l Code: 2022-151DR
Perigee: 815.6 km
Apogee: 1,280.4 km
Inclination: 98.5 °
Period: 106.0 minutes
Semi major axis: 7419 km
RCS: Unknown
Launch date: November 11, 2022
Source: People's Republic of China (PRC)
Launch site: Taiyaun Space Center, China (TSC)

Note: This is SATELLITE DEBRIS
Your satellite tracking list
Your tracking list is empty




NASA's NSSDC Master Catalog

Two Line Element Set (TLE):
1 54393U 22151DR  26041.59419408  .00000630  00000-0  66478-3 0  9991
2 54393  98.5236 273.2492 0313224 239.0166 117.9860 13.58573424160809
Source of the keplerian elements: AFSPC